MST,Max TemperatureF,Mean TemperatureF,Min TemperatureF,Max Dew PointF,MeanDew PointF,Min DewpointF,Max Humidity, Mean Humidity, Min Humidity, Max Sea Level PressureIn, Mean Sea Level PressureIn, Min Sea Level PressureIn, Max VisibilityMiles, Mean VisibilityMiles, Min VisibilityMiles, Max Wind SpeedMPH, Mean Wind SpeedMPH, Max Gust SpeedMPH,PrecipitationIn, CloudCover, Events, WindDirDegrees
2012-10-1,90,71,52,37,33,31,45,29,12,30.13,29.95,29.86,10,10,10,16,7,23,0.00,0,,102
2012-10-2,93,72,51,35,32,28,46,28,10,30.05,29.91,29.78,10,10,10,18,6,22,0.00,0,,339
2012-10-3,92,73,53,34,29,25,38,24,9,30.09,29.94,29.86,10,10,10,20,6,25,0.00,0,,345
2012-10-4,90,70,50,35,32,30,44,28,12,30.16,30.02,29.96,10,10,10,17,6,28,0.00,0,,287
2012-10-5,89,71,52,38,32,28,46,29,12,30.04,29.96,29.88,10,10,10,21,6,26,0.00,0,,304
2012-10-6,86,68,50,35,30,24,50,31,11,29.95,29.88,29.81,10,10,10,20,7,23,0.00,0,,189
2012-10-7,86,67,47,36,31,28,46,30,13,29.94,29.87,29.80,10,10,10,15,5,20,0.00,0,,154
2012-10-8,87,67,46,32,29,23,42,26,10,30.07,29.92,29.84,10,10,10,16,5,22,0.00,0,,187
2012-10-9,85,68,50,33,29,26,41,27,13,29.99,29.92,29.84,10,10,10,14,5,17,0.00,0,,149
2012-10-10,85,68,50,39,33,24,50,31,11,30.01,29.91,29.82,10,10,10,20,7,24,0.00,0,,159
2012-10-11,83,69,54,46,41,34,59,39,18,30.05,29.89,29.81,10,10,10,25,11,32,T,1,,160
2012-10-12,81,66,50,55,37,12,73,41,8,30.13,29.96,29.84,10,10,10,32,13,38,0.00,1,,244
2012-10-13,77,59,41,37,31,25,70,43,15,30.16,30.04,29.95,10,10,10,13,7,16,0.00,0,,341
2012-10-14,83,61,38,31,26,24,53,33,12,30.16,30.03,29.94,10,10,10,24,6,29,0.00,0,,81
2012-10-15,83,64,45,31,27,23,45,29,13,30.14,29.95,29.85,10,10,10,15,6,17,0.00,0,,120
2012-10-16,84,63,42,37,26,19,53,32,10,30.05,29.87,29.76,10,10,10,12,4,14,0.00,0,,133
2012-10-17,85,64,43,48,38,30,76,48,19,30.00,29.87,29.79,10,10,10,13,5,20,0.00,0,,83
2012-10-18,83,69,54,55,45,35,67,46,25,30.18,29.97,29.86,10,10,10,15,7,22,0.00,0,,339
2012-10-19,85,70,54,47,41,37,66,43,20,30.07,29.89,29.79,10,10,10,12,5,13,0.00,0,,356
2012-10-20,86,71,55,48,37,29,47,31,14,30.03,29.80,29.71,10,10,10,22,7,28,0.00,0,,275
2012-10-21,80,66,51,46,38,32,59,39,19,30.06,29.86,29.78,10,10,10,24,9,32,0.00,0,,143
2012-10-22,82,64,45,44,35,30,65,41,16,29.99,29.88,29.83,10,10,10,14,5,18,0.00,0,,156
2012-10-23,85,64,43,37,31,25,57,34,11,30.06,29.86,29.78,10,10,10,15,5,21,0.00,0,,169
2012-10-24,84,64,44,38,32,26,53,33,13,29.89,29.83,29.75,10,10,10,20,8,26,0.00,0,,292
2012-10-25,80,62,44,31,18,2,50,28,5,30.07,29.93,29.85,10,10,10,14,7,16,0.00,0,,339
2012-10-26,78,59,39,29,23,12,31,22,12,30.03,29.94,29.87,10,10,10,20,9,25,0.00,0,,83
2012-10-27,77,60,43,32,29,25,57,38,19,30.14,29.96,29.86,10,10,10,14,5,17,0.00,0,,28
2012-10-28,83,61,38,31,25,20,51,32,13,30.09,29.99,29.92,10,10,10,12,3,14,0.00,0,,30
2012-10-29,83,62,41,26,23,19,41,27,12,30.18,30.05,29.98,10,10,10,14,4,17,0.00,0,,1
2012-10-30,83,61,39,28,22,16,48,29,10,30.11,30.01,29.92,10,10,10,13,6,17,0.00,0,,357
2012-10-31,82,61,40,24,18,15,34,22,9,30.08,29.98,29.91,10,10,10,14,5,16,0.00,0,,29